• In Deutschland
  • Länderverzeichnis
  • Für 7 Tage
  • Wassertemperatur
  • Satellitenkarten
  • Wetterkarte
  • Widgets
  • user-avatar
    Anmelden

    Stündliche Wetter Stropicy

    Heute, 21 Oktober, Sonntag

    Zeit Temperatur Niederschläge Wind Luftdruck Luftfeuchtigkeit
    00:00 +6°C° 0 mm 1 m/S 764 mmHg 92%
    01:00 +6°C° 0 mm 1 m/S 764 mmHg 93%
    02:00 +6°C° 0 mm 1 m/S 764 mmHg 94%
    03:00 +5°C° 0 mm 2 m/S 764 mmHg 95%
    04:00 +5°C° 0 mm 2 m/S 764 mmHg 95%
    05:00 +4°C° 0 mm 2 m/S 764 mmHg 95%
    06:00 +4°C° 0 mm 2 m/S 764 mmHg 95%
    07:00 +4°C° 0 mm 2 m/S 765 mmHg 95%
    08:00 +4°C° 0 mm 2 m/S 765 mmHg 95%
    09:00 +6°C° 0 mm 2 m/S 765 mmHg 90%
    10:00 +7°C° 0 mm 2 m/S 765 mmHg 85%
    11:00 +8°C° 0 mm 2 m/S 765 mmHg 79%
    12:00 +9°C° 0 mm 3 m/S 765 mmHg 77%
    13:00 +9°C° 0 mm 3 m/S 765 mmHg 74%
    14:00 +9°C° 0 mm 3 m/S 765 mmHg 71%
    15:00 +9°C° 0 mm 3 m/S 764 mmHg 75%
    16:00 +8°C° 0 mm 3 m/S 764 mmHg 79%
    17:00 +7°C° 0 mm 3 m/S 764 mmHg 82%
    18:00 +6°C° 0 mm 4 m/S 764 mmHg 83%
    19:00 +6°C° 0 mm 4 m/S 763 mmHg 83%
    20:00 +6°C° 0 mm 5 m/S 763 mmHg 84%
    21:00 +6°C° 0 mm 5 m/S 762 mmHg 84%
    22:00 +6°C° 0 mm 5 m/S 762 mmHg 85%
    23:00 +5°C° 0 mm 6 m/S 761 mmHg 85%

    Morgen, 22 Oktober, Montag

    Zeit Temperatur Niederschläge Wind Luftdruck Luftfeuchtigkeit
    00:00 +5°C° 0 mm 6 m/S 761 mmHg 85%
    01:00 +5°C° 0 mm 6 m/S 760 mmHg 86%
    02:00 +5°C° 0 mm 6 m/S 760 mmHg 86%
    03:00 +6°C° 0 mm 7 m/S 759 mmHg 86%
    04:00 +6°C° 0 mm 7 m/S 759 mmHg 86%
    05:00 +6°C° 0 mm 7 m/S 758 mmHg 86%
    06:00 +8°C° 0.1 mm 7 m/S 757 mmHg 85%
    07:00 +8°C° 0.1 mm 7 m/S 757 mmHg 85%
    08:00 +9°C° 0.1 mm 7 m/S 756 mmHg 85%
    09:00 +9°C° 0.2 mm 7 m/S 756 mmHg 85%
    10:00 +9°C° 0.2 mm 7 m/S 756 mmHg 86%
    11:00 +9°C° 0.2 mm 7 m/S 755 mmHg 86%
    12:00 +10°C° 0.7 mm 6 m/S 755 mmHg 86%
    13:00 +10°C° 0.7 mm 6 m/S 755 mmHg 86%
    14:00 +10°C° 0.7 mm 6 m/S 755 mmHg 85%
    15:00 +9°C° 0.2 mm 5 m/S 755 mmHg 84%
    16:00 +9°C° 0.2 mm 5 m/S 754 mmHg 83%
    17:00 +8°C° 0.2 mm 5 m/S 754 mmHg 81%
    18:00 +8°C° 0 mm 5 m/S 755 mmHg 79%
    19:00 +7°C° 0 mm 5 m/S 755 mmHg 77%
    20:00 +6°C° 0 mm 5 m/S 755 mmHg 75%
    21:00 +5°C° 0 mm 5 m/S 755 mmHg 75%
    22:00 +5°C° 0 mm 4 m/S 755 mmHg 75%
    23:00 +4°C° 0 mm 4 m/S 755 mmHg 75%

    übermorgen, 23 Oktober, Dienstag

    Zeit Temperatur Niederschläge Wind Luftdruck Luftfeuchtigkeit
    00:00 +4°C° 0 mm 4 m/S 755 mmHg 75%
    01:00 +4°C° 0 mm 4 m/S 755 mmHg 76%
    02:00 +4°C° 0 mm 4 m/S 755 mmHg 76%
    03:00 +3°C° 0 mm 4 m/S 754 mmHg 77%
    04:00 +3°C° 0 mm 4 m/S 754 mmHg 78%
    05:00 +3°C° 0 mm 4 m/S 753 mmHg 80%
    06:00 +3°C° 0 mm 4 m/S 753 mmHg 80%
    07:00 +3°C° 0 mm 4 m/S 752 mmHg 81%
    08:00 +3°C° 0 mm 4 m/S 752 mmHg 82%
    09:00 +4°C° 0 mm 4 m/S 751 mmHg 78%
    10:00 +5°C° 0 mm 5 m/S 750 mmHg 75%
    11:00 +6°C° 0 mm 5 m/S 749 mmHg 72%
    12:00 +5°C° 0 mm 6 m/S 748 mmHg 70%
    13:00 +5°C° 0 mm 6 m/S 747 mmHg 69%
    14:00 +5°C° 0 mm 6 m/S 745 mmHg 68%
    15:00 +5°C° 0.1 mm 7 m/S 744 mmHg 70%
    16:00 +5°C° 0.1 mm 7 m/S 742 mmHg 73%
    17:00 +4°C° 0.1 mm 8 m/S 741 mmHg 75%
    18:00 +4°C° 0.9 mm 8 m/S 739 mmHg 76%
    19:00 +4°C° 0.9 mm 8 m/S 738 mmHg 78%
    20:00 +4°C° 0.9 mm 8 m/S 737 mmHg 79%
    21:00 +4°C° 1.1 mm 8 m/S 736 mmHg 80%
    22:00 +4°C° 1.1 mm 7 m/S 735 mmHg 82%
    23:00 +4°C° 1.1 mm 7 m/S 734 mmHg 83%

    24 Oktober, Mittwoch

    Zeit Temperatur Niederschläge Wind Luftdruck Luftfeuchtigkeit
    00:00 +4°C° 1 mm 7 m/S 734 mmHg 84%
    01:00 +4°C° 1 mm 6 m/S 733 mmHg 85%
    02:00 +3°C° 1 mm 6 m/S 732 mmHg 86%
    03:00 +3°C° 0.5 mm 5 m/S 732 mmHg 86%
    04:00 +3°C° 0.5 mm 5 m/S 732 mmHg 87%
    05:00 +3°C° 0.5 mm 5 m/S 732 mmHg 87%
    06:00 +4°C° 0.2 mm 4 m/S 732 mmHg 87%
    07:00 +4°C° 0.2 mm 4 m/S 732 mmHg 87%
    08:00 +4°C° 0.2 mm 4 m/S 732 mmHg 87%
    09:00 +4°C° 0.4 mm 4 m/S 733 mmHg 87%
    10:00 +5°C° 0.4 mm 4 m/S 733 mmHg 86%
    11:00 +5°C° 0.4 mm 4 m/S 734 mmHg 85%
    12:00 +5°C° 0.4 mm 4 m/S 734 mmHg 85%
    13:00 +5°C° 0.4 mm 4 m/S 735 mmHg 85%
    14:00 +5°C° 0.4 mm 4 m/S 736 mmHg 85%
    15:00 +4°C° 0.3 mm 4 m/S 736 mmHg 85%
    16:00 +4°C° 0.3 mm 4 m/S 737 mmHg 86%
    17:00 +4°C° 0.3 mm 3 m/S 737 mmHg 87%
    18:00 +4°C° 0.4 mm 3 m/S 738 mmHg 88%
    19:00 +4°C° 0.4 mm 3 m/S 738 mmHg 89%
    20:00 +4°C° 0.4 mm 3 m/S 739 mmHg 89%
    21:00 +3°C° 0.1 mm 3 m/S 739 mmHg 90%
    22:00 +3°C° 0.1 mm 3 m/S 739 mmHg 90%
    23:00 +3°C° 0.1 mm 3 m/S 739 mmHg 90%

    25 Oktober, Donnerstag

    Zeit Temperatur Niederschläge Wind Luftdruck Luftfeuchtigkeit
    00:00 +3°C° 0.3 mm 3 m/S 740 mmHg 90%
    01:00 +3°C° 0.3 mm 4 m/S 740 mmHg 89%
    02:00 +4°C° 0.3 mm 4 m/S 740 mmHg 88%
    03:00 +4°C° 0.3 mm 4 m/S 740 mmHg 88%
    04:00 +4°C° 0.3 mm 4 m/S 740 mmHg 88%
    05:00 +4°C° 0.3 mm 4 m/S 740 mmHg 88%
    06:00 +3°C° 0.2 mm 4 m/S 740 mmHg 87%
    07:00 +3°C° 0.2 mm 4 m/S 740 mmHg 87%
    08:00 +3°C° 0.2 mm 4 m/S 740 mmHg 87%
    09:00 +3°C° 0 mm 5 m/S 740 mmHg 82%
    10:00 +3°C° 0 mm 5 m/S 741 mmHg 77%
    11:00 +5°C° 0 mm 5 m/S 741 mmHg 73%
    12:00 +5°C° 0.1 mm 5 m/S 741 mmHg 72%
    13:00 +5°C° 0.1 mm 5 m/S 741 mmHg 72%
    14:00 +5°C° 0.1 mm 5 m/S 741 mmHg 72%
    15:00 +5°C° 0 mm 5 m/S 741 mmHg 74%
    16:00 +4°C° 0 mm 4 m/S 741 mmHg 77%
    17:00 +4°C° 0 mm 4 m/S 741 mmHg 79%
    18:00 +3°C° 0.1 mm 4 m/S 741 mmHg 81%
    19:00 +3°C° 0.1 mm 4 m/S 741 mmHg 82%
    20:00 +3°C° 0.1 mm 4 m/S 741 mmHg 84%
    21:00 +3°C° 0 mm 4 m/S 741 mmHg 85%
    22:00 +1°C° 0 mm 4 m/S 742 mmHg 87%
    23:00 +1°C° 0 mm 4 m/S 742 mmHg 88%

    26 Oktober, Freitag

    Zeit Temperatur Niederschläge Wind Luftdruck Luftfeuchtigkeit
    00:00 +1°C° 0 mm 4 m/S 742 mmHg 88%
    01:00 +1°C° 0 mm 4 m/S 742 mmHg 88%
    02:00 +1°C° 0 mm 4 m/S 742 mmHg 88%
    03:00 +1°C° 0 mm 4 m/S 742 mmHg 86%
    04:00 +1°C° 0 mm 4 m/S 742 mmHg 85%
    05:00 +1°C° 0 mm 4 m/S 742 mmHg 84%
    06:00 +1°C° 0 mm 4 m/S 742 mmHg 85%
    07:00 +1°C° 0 mm 4 m/S 743 mmHg 86%
    08:00 +1°C° 0 mm 4 m/S 743 mmHg 87%
    09:00 +3°C° 0 mm 4 m/S 743 mmHg 83%
    10:00 +4°C° 0 mm 4 m/S 743 mmHg 78%
    11:00 +4°C° 0 mm 4 m/S 743 mmHg 73%
    12:00 +5°C° 0.1 mm 4 m/S 743 mmHg 72%
    13:00 +5°C° 0.1 mm 4 m/S 743 mmHg 70%
    14:00 +5°C° 0.1 mm 4 m/S 744 mmHg 69%
    15:00 +4°C° 0.1 mm 3 m/S 744 mmHg 73%
    16:00 +4°C° 0.1 mm 3 m/S 744 mmHg 77%
    17:00 +3°C° 0.1 mm 3 m/S 744 mmHg 82%
    18:00 +3°C° 0.1 mm 3 m/S 744 mmHg 83%
    19:00 +2°C° 0.1 mm 3 m/S 744 mmHg 85%
    20:00 +2°C° 0.1 mm 3 m/S 745 mmHg 87%
    21:00 +3°C° 0 mm 2 m/S 745 mmHg 88%
    22:00 +2°C° 0 mm 2 m/S 745 mmHg 89%
    23:00 +2°C° 0 mm 2 m/S 745 mmHg 91%
    Mehr zeigen